Tracking 21473 objects as of 18-Sep-2020
HD Live streaming from Space Station
objects crossing your sky now

SL-3 R/B

Track SL-3 R/B now!
10-day predictions
SL-3 R/B is classified as:


NORAD ID: 4814
Int'l Code: 1970-113B
Perigee: 450.4 km
Apogee: 482.5 km
Inclination: 81.1 °
Period: 93.8 minutes
Semi major axis: 6837 km
RCS: 6.542 m2 (large)
Launch date: December 18, 1970
Source: Commonwealth of Independent States (former USSR) (CIS)
Launch site: PLESETSK MISSILE AND SPACE COMPLEX (PKMTR)

Note: This is a ROCKET BODY
aabbcc
Your satellite tracking list
Your tracking list is empty




NASA's NSSDC Master Catalog

Two Line Element Set (TLE):
1  4814U 70113B   20261.85910749 +.00000898 +00000-0 +24887-4 0  9991
2  4814 081.1420 045.6486 0023478 314.5877 045.3445 15.35539449717319
Source of the keplerian elements: AFSPC